Location: Nebel
(54.6502°N, 8.3475°E)
Time: 22:56:34
(UTC+01:00)

Envisat - Pass Details

Date: 07 December 2022
Orbit: 763 x 765 km, 98.2° (Epoch: 01 February)

Event Time Altitude Azimuth Distance (km) Brightness Sun altitude
Rises 17:31:30 0° 227° (SW) 3,226 7.7 -11.9°
Reaches altitude 10° 17:35:45 10° 262° (W) 2,308 6.9 -12.5°
Maximum altitude 17:37:14 11° 279° (W) 2,227 6.4 -12.7°
Drops below altitude 10° 17:38:44 10° 296° (WNW) 2,313 6.1 -12.9°
Sets 17:43:01 0° 331° (NNW) 3,247 6.4 -13.5°
